Flag for Germany Weather past 2 weeks in Siegburg, North Rhine-Westphalia, Germany

Now
59 °F

Sunny.


Feels Like: 60 °F
Forecast: 65 / 90 °F
Wind: 3 mph from Southeast

Location: Bonn-Hangelar

Current Time: Aug 5, 2015 at 8:59:06 AM

Latest Report: Aug 5, 2015 at 8:00 AM


Visibility: 25 mi

Pressure: 30.09 "Hg

Humidity: 72%

Dew point: 50 °F

Location of SiegburgLocation

Historic Weather in Siegburg — Graph

°F

Siegburg temperature yesterday

Maximum temperature yesterday: 79 °F (at 5:00 AM)
Minimum temperature yesterday: 58 °F (at 11:00 PM)
Average temperature yesterday: 66 °F

Past Weeks' High & Low Weather Summary

 TemperatureHumidityPressure
High89 °F (Aug 3, 5:00 PM)100% (Jul 25, 6:00 PM)30.16 "Hg (Jul 25, 6:00 PM)
Low46 °F (Jul 31, 5:00 AM)26% (Aug 3, 5:00 PM)29.50 "Hg (Jul 25, 7:00 AM)
Average63 °F73%29.91 "Hg
* Reported Jul 21 7:00 AM — Aug 5 7:00 AM, Siegburg, Weather by CustomWeather, © 2015

Note: Actual official high and low records may vary slightly from our data, if they occured in-between our weather recording intervals... More about our weather records

Advertising

Siegburg weather history for previous 24 hours

 ConditionsComfort  
Time TempWeatherWind HumidityBarometerVisibility
7:00 AM
Wed, Aug 5
52 °FPassing clouds.2 mph89%30.10 "Hg22 mi
5:00 AM53 °FOvercast.3 mph84%30.10 "Hg22 mi
4:00 AM53 °FPassing clouds.2 mph80%30.11 "Hg22 mi
3:00 AM53 °FOvercast.3 mph84%30.11 "Hg22 mi
2:00 AM54 °FOvercast.3 mph85%30.10 "Hg22 mi
1:00 AM55 °FOvercast.3 mph84%30.10 "Hg28 mi
12:00 AM56 °FOvercast.2 mph82%30.09 "Hg28 mi
11:00 PM
Tue, Aug 4
58 °FOvercast.2 mph81%30.08 "Hg25 mi
10:00 PM60 °FOvercast.3 mph88%30.07 "Hg19 mi
9:00 PM63 °FSunny.5 mph82%30.05 "Hg22 mi
8:00 PM65 °FPassing clouds.3 mph75%30.03 "Hg22 mi
7:00 PM65 °FOvercast.5 mph76%30.02 "Hg22 mi
6:00 PM65 °FScattered clouds.5 mph78%30.01 "Hg19 mi
5:00 PM63 °FPartly sunny.5 mph83%30.02 "Hg19 mi
4:00 PM59 °FLow clouds.5 mph88%30.02 "Hg22 mi
3:00 PM60 °FLight freezing rain. Low clouds.7 mph95%29.99 "Hg6 mi
2:00 PM60 °FRain. Low clouds.8 mph100%29.97 "Hg2 mi
1:00 PM63 °FDrizzle. Low clouds.3 mph99%29.94 "Hg2 mi
12:00 PM64 °FLight rain. Low clouds.5 mph95%29.93 "Hg3 mi
11:00 AM64 °FDrizzle. Low clouds.1 mph95%29.92 "Hg10 mi
10:00 AM65 °FLight rain. Low clouds.3 mph88%29.89 "Hg6 mi
9:00 AM70 °FLight rain. Overcast.6 mph67%29.86 "Hg16 mi
8:00 AM73 °FLight rain. Overcast.6 mph58%29.84 "Hg25 mi
Weather by CustomWeather, © 2015

See weather overviewHow to use our weather pages